Index of /20260504/WXO-DD/model_gdps/15km/12/067
Name Last modified Size Description
Parent Directory -
20260504T12Z_MSC_GDPS_AirTemp_AGL-120m_LatLon0.15_PT067H.grib2 2026-05-04 16:15 901K
20260504T12Z_MSC_GDPS_AirTemp_AGL-2m_LatLon0.15_PT067H.grib2 2026-05-04 16:15 1.0M
20260504T12Z_MSC_GDPS_AirTemp_AGL-40m_LatLon0.15_PT067H.grib2 2026-05-04 16:15 919K
20260504T12Z_MSC_GDPS_AirTemp_AGL-80m_LatLon0.15_PT067H.grib2 2026-05-04 16:15 909K
20260504T12Z_MSC_GDPS_Albedo_Sfc_LatLon0.15_PT067H.grib2 2026-05-04 16:15 245K
20260504T12Z_MSC_GDPS_ConvectivePrecip-Accum_Sfc_LatLon0.15_PT067H.grib2 2026-05-04 16:15 3.2M
20260504T12Z_MSC_GDPS_DewPointDepression_AGL-2m_LatLon0.15_PT067H.grib2 2026-05-04 16:15 765K
20260504T12Z_MSC_GDPS_DewPoint_AGL-2m_LatLon0.15_PT067H.grib2 2026-05-04 16:15 607K
20260504T12Z_MSC_GDPS_DownwardLongwaveRadiationFlux-Accum_Sfc_LatLon0.15_PT067H.grib2 2026-05-04 16:15 893K
20260504T12Z_MSC_GDPS_DownwardShortwaveRadiationFlux-Accum_Sfc_LatLon0.15_PT067H.grib2 2026-05-04 16:15 1.1M
20260504T12Z_MSC_GDPS_FreezingRain-Accum1h_Sfc_LatLon0.15_PT067H.grib2 2026-05-04 16:15 35K
20260504T12Z_MSC_GDPS_FreezingRain-Accum_Sfc_LatLon0.15_PT067H.grib2 2026-05-04 16:15 276K
20260504T12Z_MSC_GDPS_IcePellets-Accum1h_Sfc_LatLon0.15_PT067H.grib2 2026-05-04 16:15 7.4K
20260504T12Z_MSC_GDPS_IcePellets-Accum_Sfc_LatLon0.15_PT067H.grib2 2026-05-04 16:15 78K
20260504T12Z_MSC_GDPS_LatentHeatNetFlux_Sfc_LatLon0.15_PT067H.grib2 2026-05-04 16:15 558K
20260504T12Z_MSC_GDPS_NetLongwaveRadiationFlux-Accum_Sfc_LatLon0.15_PT067H.grib2 2026-05-04 16:15 954K
20260504T12Z_MSC_GDPS_NetShortwaveRadiationFlux-Accum_Sfc_LatLon0.15_PT067H.grib2 2026-05-04 16:15 1.1M
20260504T12Z_MSC_GDPS_O3MixingRatio_Sfc_LatLon0.15_PT067H.grib2 2026-05-04 17:17 2.3M
20260504T12Z_MSC_GDPS_O3_EAtm_LatLon0.15_PT067H.grib2 2026-05-04 17:17 2.4M
20260504T12Z_MSC_GDPS_PlanetaryBoundaryLayerHeight_Sfc_LatLon0.15_PT067H.grib2 2026-05-04 16:15 2.5M
20260504T12Z_MSC_GDPS_Precip-Accum1h_Sfc_LatLon0.15_PT067H.grib2 2026-05-04 16:15 3.3M
20260504T12Z_MSC_GDPS_Precip-Accum_Sfc_LatLon0.15_PT067H.grib2 2026-05-04 16:15 4.8M
20260504T12Z_MSC_GDPS_PrecipRate_Sfc_LatLon0.15_PT067H.grib2 2026-05-04 16:15 3.2M
20260504T12Z_MSC_GDPS_Pressure_MSL_LatLon0.15_PT067H.grib2 2026-05-04 16:15 715K
20260504T12Z_MSC_GDPS_Pressure_Sfc_LatLon0.15_PT067H.grib2 2026-05-04 16:15 1.1M
20260504T12Z_MSC_GDPS_RadiativeTemp_Sfc_LatLon0.15_PT067H.grib2 2026-05-04 16:15 496K
20260504T12Z_MSC_GDPS_Rain-Accum1h_Sfc_LatLon0.15_PT067H.grib2 2026-05-04 16:15 1.7M
20260504T12Z_MSC_GDPS_Rain-Accum_Sfc_LatLon0.15_PT067H.grib2 2026-05-04 16:15 3.7M
20260504T12Z_MSC_GDPS_RelativeHumidity_AGL-2m_LatLon0.15_PT067H.grib2 2026-05-04 16:15 1.1M
20260504T12Z_MSC_GDPS_Runoff-Accum_Sfc_LatLon0.15_PT067H.grib2 2026-05-04 16:15 105K
20260504T12Z_MSC_GDPS_SensibleHeatNetFlux_Sfc_LatLon0.15_PT067H.grib2 2026-05-04 16:15 495K
20260504T12Z_MSC_GDPS_Snow-Accum1h_Sfc_LatLon0.15_PT067H.grib2 2026-05-04 16:15 1.3M
20260504T12Z_MSC_GDPS_Snow-Accum_Sfc_LatLon0.15_PT067H.grib2 2026-05-04 16:15 1.9M
20260504T12Z_MSC_GDPS_SnowDepth_Sfc_LatLon0.15_PT067H.grib2 2026-05-04 16:15 1.7M
20260504T12Z_MSC_GDPS_SoilTemp_DBS-0to10cm_LatLon0.15_PT067H.grib2 2026-05-04 16:15 509K
20260504T12Z_MSC_GDPS_SoilTemp_Sfc_LatLon0.15_PT067H.grib2 2026-05-04 16:15 583K
20260504T12Z_MSC_GDPS_SoilVolumetricWaterContent_DBS-0to10cm_LatLon0.15_PT067H.grib2 2026-05-04 16:15 594K
20260504T12Z_MSC_GDPS_SoilVolumetricWaterContent_DBS-0to1cm_LatLon0.15_PT067H.grib2 2026-05-04 16:15 657K
20260504T12Z_MSC_GDPS_SpecificHumidity_AGL-120m_LatLon0.15_PT067H.grib2 2026-05-04 16:15 1.1M
20260504T12Z_MSC_GDPS_SpecificHumidity_AGL-2m_LatLon0.15_PT067H.grib2 2026-05-04 16:15 1.2M
20260504T12Z_MSC_GDPS_SpecificHumidity_AGL-40m_LatLon0.15_PT067H.grib2 2026-05-04 16:15 1.1M
20260504T12Z_MSC_GDPS_SpecificHumidity_AGL-80m_LatLon0.15_PT067H.grib2 2026-05-04 16:15 1.1M
20260504T12Z_MSC_GDPS_SpecificHumidity_Sfc_LatLon0.15_PT067H.grib2 2026-05-04 16:15 676K
20260504T12Z_MSC_GDPS_TotalCloudCover_Sfc_LatLon0.15_PT067H.grib2 2026-05-04 16:15 833K
20260504T12Z_MSC_GDPS_UVIndex-ClearSky_Sfc_LatLon0.15_PT067H.grib2 2026-05-04 17:17 1.1M
20260504T12Z_MSC_GDPS_UVIndex_Sfc_LatLon0.15_PT067H.grib2 2026-05-04 17:17 1.5M
20260504T12Z_MSC_GDPS_UpwardLongwaveRadiationFlux_NTAtm_LatLon0.15_PT067H.grib2 2026-05-04 16:15 835K
20260504T12Z_MSC_GDPS_WindDir_AGL-10m_LatLon0.15_PT067H.grib2 2026-05-04 16:15 1.3M
20260504T12Z_MSC_GDPS_WindDir_AGL-120m_LatLon0.15_PT067H.grib2 2026-05-04 16:15 1.3M
20260504T12Z_MSC_GDPS_WindDir_AGL-40m_LatLon0.15_PT067H.grib2 2026-05-04 16:15 1.4M
20260504T12Z_MSC_GDPS_WindDir_AGL-80m_LatLon0.15_PT067H.grib2 2026-05-04 16:15 1.3M
20260504T12Z_MSC_GDPS_WindDir_IsbL-0700_LatLon0.15_PT067H.grib2 2026-05-04 16:15 1.6M
20260504T12Z_MSC_GDPS_WindGust-Max_AGL-10m_LatLon0.15_PT067H.grib2 2026-05-04 16:15 2.2M
20260504T12Z_MSC_GDPS_WindGust-Min_AGL-10m_LatLon0.15_PT067H.grib2 2026-05-04 16:15 2.2M
20260504T12Z_MSC_GDPS_WindGust_AGL-10m_LatLon0.15_PT067H.grib2 2026-05-04 16:15 2.2M
20260504T12Z_MSC_GDPS_WindSpeed_AGL-10m_LatLon0.15_PT067H.grib2 2026-05-04 16:15 1.1M
20260504T12Z_MSC_GDPS_WindSpeed_AGL-120m_LatLon0.15_PT067H.grib2 2026-05-04 16:15 1.2M
20260504T12Z_MSC_GDPS_WindSpeed_AGL-40m_LatLon0.15_PT067H.grib2 2026-05-04 16:15 1.2M
20260504T12Z_MSC_GDPS_WindSpeed_AGL-80m_LatLon0.15_PT067H.grib2 2026-05-04 16:15 1.2M
20260504T12Z_MSC_GDPS_WindSpeed_IsbL-0700_LatLon0.15_PT067H.grib2 2026-05-04 16:15 1.5M
20260504T12Z_MSC_GDPS_WindU_AGL-10m_LatLon0.15_PT067H.grib2 2026-05-04 16:15 1.3M
20260504T12Z_MSC_GDPS_WindU_AGL-120m_LatLon0.15_PT067H.grib2 2026-05-04 16:15 1.0M
20260504T12Z_MSC_GDPS_WindU_AGL-40m_LatLon0.15_PT067H.grib2 2026-05-04 16:15 951K
20260504T12Z_MSC_GDPS_WindU_AGL-80m_LatLon0.15_PT067H.grib2 2026-05-04 16:15 956K
20260504T12Z_MSC_GDPS_WindU_IsbL-0700_LatLon0.15_PT067H.grib2 2026-05-04 16:15 1.2M
20260504T12Z_MSC_GDPS_WindV_AGL-10m_LatLon0.15_PT067H.grib2 2026-05-04 16:15 1.3M
20260504T12Z_MSC_GDPS_WindV_AGL-120m_LatLon0.15_PT067H.grib2 2026-05-04 16:15 957K
20260504T12Z_MSC_GDPS_WindV_AGL-40m_LatLon0.15_PT067H.grib2 2026-05-04 16:15 953K
20260504T12Z_MSC_GDPS_WindV_AGL-80m_LatLon0.15_PT067H.grib2 2026-05-04 16:15 957K
20260504T12Z_MSC_GDPS_WindV_IsbL-0700_LatLon0.15_PT067H.grib2 2026-05-04 16:15 1.2M